Wind_Speed
32 47 60 71 81 90 95 96 97 97 94 89 86 84 81 78 76 73 69 66 63 63 59 55 54 52 51 51 51 52 51 50 45 46 48 49 49 50 50 50 51 49 47 47
21 39 54 67 77 88 93 97 97 100 96 91 90 85 86 83 79 74 71 68 67 64 60 57 56 52 52 51 54 52 54 51 50 52 53 54 53 52 52 54 55 53 53 53
11 24 44 61 73 83 92 97 97 99 99 95 91 89 88 82 80 77 75 73 66 66 63 60 58 56 54 55 55 55 58 55 53 53 57 57 55 54 56 57 57 58 57 57
15 14 27 46 64 75 85 95 97 96 99 96 94 86 84 83 79 77 75 72 65 66 65 62 59 59 57 59 58 59 58 58 57 56 60 60 60 59 58 59 60 62 62 62
27 14 15 29 48 65 79 91 95 95 97 99 95 91 84 85 81 75 74 69 68 67 65 64 63 63 62 60 59 59 58 58 62 62 63 62 61 62 61 61 62 64 65 65
47 26 13 17 33 52 69 83 92 94 94 98 96 91 89 82 78 78 75 72 73 69 66 63 61 59 60 62 62 62 63 65 67 62 64 65 64 60 62 63 64 66 65 66
67 44 24 10 21 38 58 74 88 92 93 90 96 94 86 85 81 80 77 76 77 74 68 66 64 59 59 64 63 59 65 58 66 65 63 60 64 65 66 67 68 67 68 72
70 65 41 21 9 26 44 65 80 90 91 91 95 93 86 86 82 80 80 78 78 74 68 68 65 65 64 68 65 66 66 69 74 71 65 66 68 69 70 72 73 73 76 80
64 66 61 40 19 12 30 51 69 84 89 90 89 88 88 88 85 82 82 81 79 76 72 70 69 68 70 71 68 67 68 69 72 72 71 69 70 73 75 76 77 81 83 83
61 61 63 59 38 17 16 34 56 73 84 85 84 82 85 87 86 84 83 83 79 77 74 72 70 69 71 69 69 69 72 73 75 74 73 75 76 77 78 81 82 84 86 88
56 56 57 60 55 35 15 18 38 58 76 80 80 78 82 87 85 83 83 82 78 75 74 74 73 72 72 72 71 72 73 74 75 76 78 78 80 83 84 86 87 88 90 92
54 54 54 54 56 51 30 13 20 39 61 73 76 73 78 83 85 83 83 83 81 76 74 73 74 75 74 74 73 73 75 76 78 80 81 84 85 86 88 89 91 92 94 96
50 48 50 51 51 53 48 25 12 21 43 62 70 72 74 78 82 84 82 81 79 76 73 73 73 75 75 75 75 77 79 81 83 84 85 87 89 91 92 94 95 97 94 94
49 47 44 47 48 48 49 43 21 12 26 48 67 73 70 73 76 78 80 78 76 75 73 72 72 73 75 77 79 81 83 85 88 89 90 92 93 95 96 96 93 95 96 98
50 46 44 41 42 43 44 45 39 18 14 35 56 64 64 63 67 71 74 75 73 72 71 70 70 71 74 78 82 84 86 86 85 86 87 87 88 88 90 93 95 97 100 102
44 46 43 39 37 38 37 37 41 36 15 15 41 58 59 56 56 59 63 66 68 69 69 70 71 73 74 75 76 77 77 77 78 80 83 86 88 91 93 96 99 102 104 106
39 42 47 41 36 33 31 31 30 34 30 11 15 37 50 56 56 58 59 61 64 65 67 70 72 75 76 76 77 78 79 81 83 85 88 90 93 96 99 101 103 105 107 110
33 40 41 42 42 40 30 28 26 24 24 21 5 19 38 50 54 55 55 57 59 61 62 64 67 72 76 77 79 81 83 86 88 90 92 95 97 100 102 104 107 108 109 109
35 35 38 41 41 42 36 35 26 21 22 18 12 6 20 36 50 57 59 61 63 65 67 68 70 72 74 77 80 83 86 88 91 94 97 100 101 102 103 105 105 106 107 111
46 40 40 37 44 50 46 32 34 31 25 23 21 18 15 16 28 46 60 64 67 71 73 75 77 78 79 81 85 88 91 92 93 93 93 95 98 100 101 103 106 110 114 118
49 43 46 46 45 50 52 45 37 36 37 30 31 30 30 30 32 33 37 42 48 53 58 63 67 70 73 74 75 78 81 85 88 91 94 97 100 103 107 110 113 117 120 124
53 53 51 49 47 48 52 50 45 43 41 43 43 40 41 42 44 47 48 50 52 54 58 61 66 70 73 77 80 83 87 90 93 97 101 104 107 111 114 118 121 124 126 128
56 58 58 55 53 59 58 54 50 45 47 49 49 53 53 54 53 55 58 60 63 65 68 71 74 78 82 86 90 93 96 98 102 106 108 111 115 117 120 122 124 126 130 135
62 65 63 63 62 65 67 63 58 52 52 52 56 60 60 62 64 66 68 69 71 73 76 79 82 86 90 94 98 101 102 104 108 110 108 111 114 114 117 121 125 129 134 138
70 69 70 68 69 73 72 72 69 61 57 58 58 60 64 68 70 71 74 76 78 80 83 86 90 95 100 103 105 106 105 106 107 108 110 114 117 120 123 127 132 136 140 140
68 72 75 75 77 77 74 77 75 73 71 67 64 66 69 72 74 76 79 81 84 87 91 93 94 96 99 99 101 101 102 105 108 113 118 122 124 127 130 133 132 132 135 134
Wind_Direction
225 220 213 212 212 210 209 210 209 211 212 214 214 215 218 219 220 223 224 228 229 231 234 237 238 240 244 248 252 254 256 260 266 267 268 269 269 272 275 277 278 278 276 278
237 224 218 213 212 211 210 211 211 211 212 213 215 213 218 218 220 220 223 226 230 232 234 235 239 241 244 247 251 254 257 259 261 263 266 267 267 270 273 275 278 280 280 281
285 236 224 217 214 214 210 212 212 211 212 212 215 214 217 219 221 222 224 226 230 235 235 236 239 242 246 248 252 255 258 262 264 266 265 267 272 273 274 276 278 282 282 284
350 270 235 226 221 216 214 213 212 212 212 212 215 215 218 219 221 222 227 228 229 234 237 238 236 240 244 247 248 254 262 264 264 264 267 268 270 270 274 279 281 282 283 283
15 343 254 230 221 220 217 214 214 214 212 213 214 214 215 219 221 223 227 229 230 232 236 238 237 240 246 249 253 257 259 262 264 265 268 270 273 275 277 280 282 283 283 282
19 12 338 239 224 218 217 217 215 215 215 214 215 214 217 218 221 222 226 229 231 230 232 235 240 244 248 250 253 258 258 262 264 270 271 272 274 277 279 279 279 280 281 283
23 18 10 323 230 219 217 216 217 216 216 215 216 215 215 218 219 222 225 228 232 235 233 234 237 241 246 250 253 254 256 260 267 275 276 276 277 277 278 278 279 277 281 287
22 22 17 5 291 227 221 217 216 217 217 216 216 215 213 219 219 221 224 228 234 236 236 237 239 241 243 248 252 255 258 253 270 274 277 277 277 279 280 281 282 283 286 287
19 22 22 16 356 271 231 221 218 217 217 217 218 214 213 219 220 222 224 228 232 236 238 238 241 242 244 249 253 258 261 263 268 271 272 275 277 279 280 281 283 285 286 286
12 18 21 21 13 347 262 232 223 221 219 217 218 215 213 218 220 222 225 228 231 235 239 241 242 243 245 251 256 260 262 265 267 270 273 275 277 279 280 281 283 283 285 287
9 12 18 19 20 11 340 255 232 225 222 219 218 216 214 218 221 223 226 230 232 235 237 240 244 247 249 251 255 259 262 266 269 271 273 276 277 277 279 281 282 284 286 288
7 7 9 15 18 19 7 327 253 232 225 220 218 217 217 218 221 223 226 230 233 235 238 240 242 246 249 252 255 259 263 267 269 271 272 273 275 277 278 281 284 285 287 289
360 4 6 6 11 16 18 5 305 246 228 222 218 219 219 219 222 225 227 230 234 237 240 243 244 247 251 254 257 260 263 265 267 269 271 273 276 279 281 283 284 286 286 286
355 357 1 3 3 9 13 17 2 278 231 221 218 219 220 220 223 226 228 231 235 239 242 246 249 252 254 256 258 261 263 265 268 271 274 276 278 279 281 283 283 283 284 287
355 354 353 357 359 1 6 11 18 3 246 221 218 220 224 223 225 228 231 233 236 241 245 249 253 256 259 261 262 264 267 270 272 274 275 277 278 279 280 281 283 286 287 289
342 350 350 347 350 353 357 2 8 20 9 228 220 221 222 227 231 234 236 238 240 243 246 250 253 257 260 262 264 266 268 271 273 275 276 277 279 281 282 284 285 287 288 289
331 329 340 343 337 341 345 348 354 3 17 12 226 224 224 229 233 236 239 242 244 247 250 252 255 258 261 264 266 268 270 271 273 275 277 279 280 282 284 285 287 288 289 290
323 323 323 332 333 327 331 330 336 341 350 5 348 224 224 228 234 238 241 245 248 251 254 256 258 260 262 264 267 268 270 272 274 276 278 279 281 282 284 285 286 288 289 289
323 326 316 314 320 320 313 312 315 315 322 322 332 306 238 235 236 240 244 247 250 252 254 257 259 262 264 265 267 269 271 273 275 277 279 280 281 282 283 285 286 286 288 289
312 307 324 317 306 307 317 295 298 298 293 293 293 282 266 249 244 244 245 247 250 254 257 259 261 263 265 267 268 270 272 274 275 276 277 278 280 281 283 284 285 287 287 289
306 305 306 314 319 300 303 308 288 289 284 280 278 274 271 270 267 258 249 245 248 252 256 259 261 263 265 266 268 270 271 272 274 275 276 278 280 282 284 285 286 287 289 289
299 299 300 303 296 297 296 298 296 288 280 276 276 271 267 264 264 267 267 267 265 264 264 264 265 265 267 268 270 272 274 275 277 280 281 281 282 283 284 286 286 287 289 289
296 297 297 295 289 287 294 290 288 285 280 278 276 274 275 273 269 265 264 264 265 267 269 270 272 274 275 276 277 277 278 279 280 282 281 281 282 283 284 285 286 286 286 289
294 293 293 289 286 283 283 287 286 283 281 277 273 272 272 272 271 270 271 273 273 273 273 273 273 274 274 274 275 276 277 279 280 281 281 281 282 283 284 285 287 288 289 290
289 286 280 283 280 279 281 282 282 283 280 276 273 271 272 272 273 274 272 272 272 273 274 274 274 275 276 275 275 276 277 279 279 279 281 283 284 285 287 287 288 288 288 290
278 279 279 276 274 277 278 278 279 280 279 279 276 274 272 271 270 270 272 274 274 273 273 275 277 278 280 279 278 278 276 279 280 279 280 282 283 284 285 287 290 291 291 293
Height
10460 10466 10473 10484 10499 10512 10531 10544 10561 10573 10586 10601 10617 10628 10639 10650 10660 10671 10682 10689 10697 10700 10708 10714 10719 10722 10725 10725 10726 10727 10729 10731 10732 10731 10730 10730 10730 10729 10728 10727 10725 10724 10723 10722
10458 10462 10468 10476 10487 10501 10521 10533 10548 10560 10575 10591 10602 10619 10623 10635 10650 10662 10670 10679 10686 10692 10700 10705 10708 10711 10713 10715 10715 10718 10720 10722 10721 10721 10720 10720 10720 10719 10718 10716 10715 10714 10713 10712
10457 10459 10463 10470 10478 10490 10506 10521 10535 10549 10562 10577 10591 10603 10613 10631 10643 10654 10660 10670 10680 10685 10691 10696 10700 10703 10705 10705 10709 10710 10710 10712 10713 10712 10710 10709 10711 10710 10708 10706 10705 10704 10702 10700
10458 10456 10458 10465 10473 10481 10497 10509 10522 10536 10552 10568 10578 10600 10612 10623 10634 10645 10653 10664 10672 10676 10681 10687 10691 10692 10693 10695 10697 10699 10701 10702 10701 10700 10699 10700 10699 10698 10697 10696 10695 10693 10690 10688
10459 10456 10455 10458 10465 10476 10485 10497 10513 10528 10541 10554 10568 10585 10603 10610 10624 10640 10647 10655 10662 10666 10672 10676 10678 10681 10685 10687 10689 10691 10691 10691 10690 10689 10688 10688 10688 10688 10687 10686 10682 10680 10678 10675
10462 10457 10455 10455 10459 10468 10477 10490 10503 10517 10528 10543 10559 10578 10589 10607 10623 10627 10635 10643 10646 10653 10660 10665 10669 10673 10675 10676 10678 10679 10679 10678 10678 10679 10677 10677 10677 10677 10676 10673 10670 10667 10665 10662
10470 10462 10457 10457 10457 10462 10470 10480 10494 10506 10520 10543 10550 10565 10590 10595 10607 10617 10623 10629 10633 10641 10651 10655 10659 10662 10664 10665 10668 10669 10667 10667 10666 10668 10667 10667 10666 10664 10662 10660 10657 10653 10651 10648
10481 10470 10463 10459 10459 10461 10465 10473 10484 10497 10513 10526 10535 10557 10581 10586 10597 10606 10613 10618 10623 10630 10640 10644 10648 10651 10652 10652 10655 10657 10658 10658 10657 10657 10656 10655 10653 10650 10647 10644 10642 10639 10635 10631
10490 10482 10471 10464 10461 10462 10465 10470 10478 10488 10500 10515 10529 10553 10565 10573 10587 10595 10601 10607 10614 10620 10626 10631 10635 10638 10640 10640 10644 10646 10647 10648 10647 10645 10644 10642 10639 10636 10633 10630 10627 10623 10619 10615
10500 10490 10482 10473 10466 10462 10463 10467 10474 10483 10492 10508 10524 10543 10560 10563 10572 10582 10589 10596 10604 10609 10614 10618 10623 10626 10629 10631 10633 10634 10635 10635 10634 10632 10630 10628 10626 10622 10619 10615 10611 10607 10602 10596
10508 10500 10492 10483 10474 10467 10464 10465 10470 10477 10487 10501 10517 10534 10545 10552 10562 10573 10580 10587 10594 10600 10604 10608 10612 10616 10619 10620 10621 10622 10621 10621 10620 10618 10616 10613 10610 10607 10603 10599 10594 10589 10584 10577
10513 10506 10498 10492 10485 10475 10468 10465 10467 10472 10479 10493 10508 10525 10533 10542 10551 10561 10568 10574 10580 10586 10592 10597 10600 10603 10605 10607 10608 10609 10609 10607 10605 10603 10601 10598 10594 10590 10586 10581 10576 10570 10563 10557
10517 10512 10505 10498 10492 10485 10476 10469 10466 10467 10474 10487 10502 10513 10522 10532 10541 10549 10557 10563 10570 10577 10582 10586 10589 10592 10594 10596 10596 10596 10594 10592 10590 10587 10584 10581 10576 10572 10567 10561 10555 10549 10543 10536
10521 10515 10511 10504 10498 10491 10484 10475 10469 10466 10469 10477 10492 10498 10512 10521 10531 10541 10550 10557 10562 10567 10571 10576 10580 10582 10583 10583 10582 10581 10579 10577 10574 10571 10567 10562 10557 10552 10547 10541 10535 10529 10522 10516
10524 10519 10514 10510 10504 10498 10491 10484 10476 10470 10468 10473 10483 10499 10508 10521 10527 10534 10541 10548 10555 10560 10564 10567 10569 10570 10570 10568 10567 10565 10563 10561 10558 10553 10548 10543 10538 10532 10527 10521 10514 10507 10500 10493
10527 10521 10516 10512 10509 10504 10499 10492 10485 10478 10474 10475 10481 10490 10504 10516 10526 10532 10538 10543 10547 10551 10554 10556 10556 10555 10554 10552 10551 10549 10547 10544 10539 10534 10529 10524 10518 10513 10506 10499 10492 10485 10477 10469
10526 10521 10516 10513 10509 10507 10504 10499 10494 10488 10483 10481 10483 10493 10503 10510 10517 10522 10528 10532 10536 10540 10541 10542 10542 10541 10539 10537 10535 10533 10529 10524 10520 10515 10510 10504 10498 10491 10485 10477 10469 10461 10453 10445
10524 10519 10515 10512 10507 10504 10505 10502 10498 10495 10492 10488 10487 10490 10495 10503 10508 10513 10518 10521 10524 10526 10527 10528 10527 10526 10523 10521 10517 10513 10509 10505 10500 10495 10489 10483 10476 10468 10461 10453 10446 10437 10429 10420
10518 10515 10513 10508 10504 10500 10500 10499 10498 10497 10494 10494 10493 10491 10493 10497 10499 10504 10507 10509 10510 10511 10511 10511 10510 10508 10506 10502 10499 10494 10490 10485 10479 10473 10467 10461 10454 10446 10438 10430 10423 10415 10405 10395
10505 10504 10504 10504 10500 10493 10490 10494 10493 10493 10492 10491 10492 10492 10491 10491 10492 10494 10496 10497 10497 10497 10496 10495 10493 10490 10487 10483 10479 10474 10469 10464 10458 10452 10445 10438 10432 10424 10416 10408 10399 10389 10378 10367
10493 10492 10491 10489 10492 10485 10481 10482 10484 10484 10483 10484 10484 10484 10485 10485 10485 10484 10482 10481 10480 10479 10478 10476 10474 10471 10467 10462 10458 10453 10448 10442 10436 10430 10423 10416 10408 10400 10391 10381 10372 10361 10352 10339
10480 10478 10477 10478 10475 10473 10472 10471 10470 10471 10472 10472 10472 10471 10472 10471 10471 10470 10468 10467 10465 10463 10462 10459 10456 10452 10447 10442 10436 10430 10425 10419 10413 10407 10400 10392 10383 10374 10365 10355 10344 10334 10323 10310
10468 10463 10461 10461 10461 10454 10456 10458 10458 10457 10457 10457 10456 10454 10454 10453 10453 10451 10449 10448 10447 10445 10442 10439 10435 10431 10425 10419 10413 10407 10402 10396 10389 10381 10373 10364 10356 10347 10337 10326 10314 10302 10291 10282
10452 10445 10445 10440 10440 10436 10435 10440 10442 10443 10442 10441 10438 10436 10435 10435 10433 10432 10431 10429 10427 10424 10421 10417 10412 10407 10400 10394 10386 10380 10375 10369 10362 10353 10345 10337 10328 10317 10306 10296 10285 10274 10261 10250
10438 10429 10421 10426 10420 10414 10418 10417 10419 10423 10424 10422 10421 10419 10416 10414 10412 10411 10409 10406 10403 10400 10396 10392 10387 10381 10374 10367 10361 10356 10350 10342 10333 10326 10317 10308 10298 10288 10277 10266 10255 10243 10229 10218
10414 10408 10400 10400 10394 10397 10401 10396 10397 10398 10398 10400 10401 10399 10395 10392 10390 10387 10384 10382 10378 10374 10370 10365 10360 10353 10346 10340 10335 10328 10321 10314 10306 10298 10289 10278 10269 10259 10248 10237 10222 10207 10197 10183